Weather History for Denali Park, AK

Change the Weather History Date:

Wednesday, September 4, 2013

  Actual Average Record
Temperature  
Mean Temperature 50 °F -  
Max Temperature 53 °F 55 °F 69 °F (1963)
Min Temperature 46 °F 32 °F 18 °F (1980)
Degree Days  
Heating Degree Days 16    
Moisture  
Dew Point 42 °F    
Average Humidity 78    
Maximum Humidity 93    
Minimum Humidity 62    
Precipitation  
Precipitation 0.00 in - - ()
Sea Level Pressure  
Sea Level Pressure 29.49 in    
Wind  
Wind Speed 4 mph (SSE)    
Max Wind Speed 12 mph    
Max Gust Speed 21 mph    
Visibility 10 miles    
Events      
Averages and records for this station are not official NWS values.
T = Trace of Precipitation, MM = Missing Value Source: NWS Daily Summary

Daily Weather History Graph

Daily Weather History Graph

Search for Another Location

Airport:

Trip Planner

Search our weather history database for the weather conditions in past years. The results will help you decide how hot, cold, wet, or windy it might be!

Date:

Astronomy

Sep. 04, 2013 Rise Set
Actual Time 6:49 AM AKDT 8:57 PM AKDT
Civil Twilight 5:58 AM AKDT 9:48 PM AKDT
Nautical Twilight 4:49 AM AKDT 10:55 PM AKDT
Astronomical Twilight 3:04 AM AKDT 12:35 AM AKDT
Moon 6:16 AM AKDT (9/4) 8:06 PM AKDT (9/4)
Length of Visible Light 15h 50m
Length of Day
14h 08m
Waning Crescent, 0% of the Moon is Illuminated
Sep 4
Waning Crescent
Sep 5
New
Sep 12
First Quarter
Sep 19
Full
Sep 26
Last Quarter

Hourly Weather History & Observations

Time (AKDT) Temp. Windchill Dew Point Humidity Pressure Visibility Wind Dir Wind Speed Gust Speed Precip Events Conditions
12:16 AM 46.4 °F 44.3 °F 42.8 °F 87% 29.39 in 10.0 mi SSW 4.6 mph - N/A   Overcast
12:36 AM 46.4 °F 45.2 °F 42.8 °F 87% 29.40 in 10.0 mi SW 3.5 mph - N/A   Overcast
12:56 AM 46.4 °F - 42.8 °F 87% 29.40 in 10.0 mi Calm Calm - N/A   Overcast
1:16 AM 46.4 °F - 42.8 °F 87% 29.40 in 10.0 mi Calm Calm - N/A   Overcast
1:36 AM 46.4 °F 45.2 °F 42.8 °F 87% 29.40 in 10.0 mi SW 3.5 mph - N/A   Overcast
1:56 AM 48.2 °F - 42.8 °F 82% 29.40 in 10.0 mi Calm Calm - N/A   Overcast
2:16 AM 46.4 °F - 42.8 °F 87% 29.40 in 10.0 mi Calm Calm - N/A   Overcast
2:36 AM 48.2 °F - 42.8 °F 82% 29.40 in 10.0 mi NW 4.6 mph - N/A   Overcast
2:56 AM 48.2 °F - 42.8 °F 82% 29.40 in 10.0 mi Calm Calm - N/A   Mostly Cloudy
3:16 AM 46.4 °F - 42.8 °F 87% 29.41 in 10.0 mi Calm Calm - N/A   Scattered Clouds
3:36 AM 46.4 °F - 42.8 °F 87% 29.40 in 10.0 mi Calm Calm - N/A   Mostly Cloudy
3:56 AM 46.4 °F - 42.8 °F 87% 29.40 in 10.0 mi Calm Calm - N/A   Mostly Cloudy
4:16 AM 46.4 °F - 42.8 °F 87% 29.40 in 10.0 mi Calm Calm - N/A   Mostly Cloudy
4:36 AM 46.4 °F - 42.8 °F 87% 29.38 in 10.0 mi Calm Calm - N/A   Mostly Cloudy
4:56 AM 46.4 °F - 42.8 °F 87% 29.38 in 10.0 mi Calm Calm - N/A   Mostly Cloudy
5:16 AM 46.4 °F - 42.8 °F 87% 29.38 in 10.0 mi Calm Calm - N/A   Scattered Clouds
5:36 AM 46.4 °F 45.2 °F 42.8 °F 87% 29.39 in 10.0 mi South 3.5 mph - N/A   Overcast
5:56 AM 46.4 °F 45.2 °F 42.8 °F 87% 29.39 in 10.0 mi South 3.5 mph - N/A   Mostly Cloudy
6:16 AM 46.4 °F 45.2 °F 44.6 °F 93% 29.39 in 10.0 mi South 3.5 mph - N/A   Overcast
6:36 AM 46.4 °F - 44.6 °F 93% 29.38 in 10.0 mi Calm Calm - N/A   Overcast
6:56 AM 46.4 °F 45.2 °F 44.6 °F 93% 29.38 in 10.0 mi WSW 3.5 mph - N/A   Overcast
7:16 AM 46.4 °F - 44.6 °F 93% 29.38 in 10.0 mi Calm Calm - N/A   Overcast
7:36 AM 46.4 °F - 44.6 °F 93% 29.37 in 10.0 mi Calm Calm - N/A   Overcast
7:56 AM 46.4 °F 44.3 °F 44.6 °F 93% 29.37 in 10.0 mi SW 4.6 mph - N/A   Scattered Clouds
8:16 AM 48.2 °F - 44.6 °F 87% 29.37 in 10.0 mi Calm Calm - N/A   Mostly Cloudy
8:36 AM 48.2 °F - 42.8 °F 82% 29.37 in 10.0 mi South 6.9 mph - N/A   Overcast
8:56 AM 50.0 °F - 42.8 °F 76% 29.37 in 10.0 mi SSW 6.9 mph - N/A   Overcast
9:16 AM 50.0 °F - 42.8 °F 76% 29.37 in 10.0 mi South 5.8 mph - N/A   Mostly Cloudy
9:36 AM 50.0 °F - 42.8 °F 76% 29.38 in 10.0 mi Calm Calm - N/A   Scattered Clouds
9:56 AM 50.0 °F - 42.8 °F 76% 29.39 in 10.0 mi Calm Calm - N/A   Overcast
10:16 AM 51.8 °F - 41.0 °F 67% 29.40 in 10.0 mi South 9.2 mph 18.4 mph N/A   Overcast
10:36 AM 50.0 °F - 41.0 °F 71% 29.42 in 10.0 mi South 5.8 mph 16.1 mph N/A   Overcast
10:56 AM 48.2 °F - 42.8 °F 82% 29.44 in 10.0 mi South 3.5 mph - N/A   Overcast
11:16 AM 50.0 °F - 42.8 °F 76% 29.45 in 10.0 mi SSE 3.5 mph - N/A   Overcast
11:36 AM 50.0 °F - 42.8 °F 76% 29.45 in 10.0 mi SSE 10.4 mph - N/A   Overcast
11:56 AM 48.2 °F - 41.0 °F 76% 29.47 in 10.0 mi ESE 6.9 mph - N/A   Mostly Cloudy
12:16 PM 48.2 °F - 41.0 °F 76% 29.48 in 10.0 mi ESE 5.8 mph - N/A   Mostly Cloudy
12:36 PM 50.0 °F - 41.0 °F 71% 29.49 in 10.0 mi SSE 4.6 mph - N/A   Overcast
12:56 PM 48.2 °F - 41.0 °F 76% 29.49 in 10.0 mi Calm Calm - N/A   Overcast
1:16 PM 48.2 °F - 41.0 °F 76% 29.50 in 10.0 mi SSE 4.6 mph - N/A   Overcast
1:36 PM 48.2 °F - 39.2 °F 71% 29.51 in 10.0 mi SSE 5.8 mph - N/A   Overcast
1:56 PM 48.2 °F - 39.2 °F 71% 29.52 in 10.0 mi SE 6.9 mph - N/A   Overcast
2:16 PM 51.8 °F - 41.0 °F 67% 29.53 in 10.0 mi SE 9.2 mph 16.1 mph N/A   Overcast
2:36 PM 51.8 °F - 41.0 °F 67% 29.53 in 10.0 mi SE 6.9 mph - N/A   Overcast
2:56 PM 50.0 °F - 39.2 °F 66% 29.53 in 10.0 mi SE 8.1 mph 16.1 mph N/A   Mostly Cloudy
3:16 PM 53.6 °F - 41.0 °F 62% 29.54 in 10.0 mi SE 9.2 mph 20.7 mph N/A   Mostly Cloudy
3:36 PM 53.6 °F - 41.0 °F 62% 29.54 in 10.0 mi SSE 9.2 mph 19.6 mph N/A   Mostly Cloudy
3:56 PM 53.6 °F - 41.0 °F 62% 29.54 in 10.0 mi SE 8.1 mph 18.4 mph N/A   Mostly Cloudy
4:16 PM 53.6 °F - 42.8 °F 67% 29.55 in 10.0 mi SSE 6.9 mph - N/A   Mostly Cloudy
4:36 PM 53.6 °F - 42.8 °F 67% 29.55 in 10.0 mi SSE 5.8 mph 18.4 mph N/A   Mostly Cloudy
4:56 PM 53.6 °F - 42.8 °F 67% 29.56 in 10.0 mi SSE 11.5 mph 17.3 mph N/A   Mostly Cloudy
5:16 PM 53.6 °F - 42.8 °F 67% 29.56 in 10.0 mi SSE 8.1 mph 18.4 mph N/A   Mostly Cloudy
5:36 PM 53.6 °F - 42.8 °F 67% 29.56 in 10.0 mi SSE 9.2 mph - N/A   Overcast
5:56 PM 51.8 °F - 41.0 °F 67% 29.57 in 10.0 mi SSE 6.9 mph 17.3 mph N/A   Mostly Cloudy
6:16 PM 51.8 °F - 41.0 °F 67% 29.57 in 10.0 mi SSE 5.8 mph - N/A   Partly Cloudy
6:36 PM 51.8 °F - 41.0 °F 67% 29.57 in 10.0 mi SSE 8.1 mph - N/A   Scattered Clouds
6:56 PM 51.8 °F - 41.0 °F 67% 29.58 in 10.0 mi SSE 6.9 mph - N/A   Scattered Clouds
7:16 PM 51.8 °F - 41.0 °F 67% 29.59 in 10.0 mi SSE 6.9 mph - N/A   Mostly Cloudy
7:36 PM 51.8 °F - 42.8 °F 71% 29.60 in 10.0 mi SSE 4.6 mph - N/A   Mostly Cloudy
7:56 PM 50.0 °F - 42.8 °F 76% 29.60 in 10.0 mi SSE 5.8 mph - N/A   Mostly Cloudy
8:16 PM 50.0 °F - 42.8 °F 76% 29.61 in 10.0 mi SSE 6.9 mph - N/A   Overcast
8:36 PM 50.0 °F - 42.8 °F 76% 29.62 in 10.0 mi SSE 5.8 mph - N/A   Overcast
8:56 PM 50.0 °F - 41.0 °F 71% 29.62 in 10.0 mi SSE 6.9 mph 17.3 mph N/A   Overcast
9:16 PM 48.2 °F - 41.0 °F 76% 29.63 in 10.0 mi South 3.5 mph - N/A   Overcast
9:36 PM 48.2 °F - 41.0 °F 76% 29.64 in 10.0 mi SSE 8.1 mph - N/A   Overcast
9:56 PM 48.2 °F - 41.0 °F 76% 29.65 in 10.0 mi South 4.6 mph - N/A   Overcast
10:16 PM 48.2 °F - 41.0 °F 76% 29.66 in 10.0 mi SSE 6.9 mph - N/A   Overcast
10:36 PM 48.2 °F - 42.8 °F 82% 29.66 in 10.0 mi South 5.8 mph - N/A   Overcast
10:56 PM 48.2 °F - 41.0 °F 76% 29.68 in 10.0 mi SSE 4.6 mph - N/A   Overcast
11:16 PM 48.2 °F - 42.8 °F 82% 29.68 in 10.0 mi South 3.5 mph - N/A   Overcast
11:36 PM 46.4 °F - 42.8 °F 87% 29.70 in 10.0 mi Calm Calm - N/A   Overcast
11:56 PM 46.4 °F - 42.8 °F 87% 29.71 in 10.0 mi Calm Calm - N/A   Overcast